FENGYUN 1C DEB, 31359

Orbit data source: Space-Track

FENGYUN 1C DEB, 31359 is space debris in SSO originally from a launch on Mon, 10 May 1999 UTC launched from the Taiyaun Space Center, China (TSC). Fengyun 1C debris stems from the Chinese weather satellite Fengyun-1C, which was intentionally destroyed by a Chinese anti-satellite missile in 2007. This event dramatically increased the amount of space debris, with thousands of trackable fragments posing hazards to satellites and human spaceflight. The Fengyun 1C debris cloud has become a focal point in discussions about space sustainability and the need for international regulations to prevent the creation of new debris.

Loading next visibility...
Identifier
31359, 1999-025BRP
Orbit
SSO
Country
Flag of CNCN / PRC
Related business
Manufacturer
Unknown
Mission
Spacecraft
Bus & Motor
Unknown
Mass
Unknown
Launch date (UTC)
1999-05-10 (27 years ago)
Launch vehicle
Unknown
Launch site
Taiyaun Space Center, China (TSC)
Object type
Payload
Rocket body
Debris
Shape & HBR
Unknown shape, 0.1 m
Radar Cross Section
Small (<0.1 m²)

Expand to show TLE details & history
Last TLE update: 1 month ago

TLE from 1 month ago
0 FENGYUN 1C DEB
1 31359U 99025BRP 26080.11568877  .00005421  00000-0  24082-2 0  9995
2 31359  99.0694 186.5389 0056523   6.9811 353.2141 14.22535533    19
Epoch: 2026-03-21T02:46Z
TLE epoch observation values (Epoch: 2026-03-21T02:46:35.509Z)
Latitude
0.00002°
Longitude
-33.75009°
Altitude
779.309 km
Speed
7.485 km/s
True Right ascension
12h 26m 09s
True Declination
0° 00' 00"
Sunlit
Object was in full shadow at epoch
Visualization orbit readout
Latitude
Unknown
Longitude
Unknown
Altitude
Unknown
Speed
Unknown
Apparent Right ascension
Unknown
Apparent Declination
Unknown
Sunlit
N/A
Visualization observer readout
Local Sidereal Time
11:49:11
Azimuth
Unknown
Elevation
Unknown
Doppler factor
Unknown
Orbital elements
Apogee altitude
854.615 km
Perigee altitude
773.311 km
Semi-major axis
7,192.1 km
Eccentricity
0.00565
Inclination
99.0694°
RAAN
186.5389°
Arg. of periapsis
6.9811°
True anomaly
353.13703°
Mean anomaly
353.2141°
Eccentric anomaly
353.17562°
Mean motion
3.55844 °/min
Orbital period
101.17 mins
BSTAR
0.0024082
Loading maneuver chart data...
Computing Atmospheric mass density...

Documentation

Showing up to 5 results
|